[[[{"header":{"parameterUnit":"kt","parameterCategory":2,"dx":1,"dy":1,"la1":30.253999710083008,"la2":30.299108505249023,"lo1":-89.0895004272461,"lo2":-89.04439544677734,"nx":28,"ny":28,"refTime":"2022-09-29T21:00:00:Z","depth":"0","parameterNumber":2,"parameterNumberName":"U-component_of_CURRENTS"},"data":[0.2915,0.2962,0.2991,0.2988,0.3004,0.2966,0.2972,0.3016,0.3109,0.3212,0.3294,0.3434,0.3617,0.375,0.3629,0.3526,0.3231,0.3205,0.3168,0.3327,0.3333,0.3338,0.3306,0.3277,0.3277,0.2772,0.2767,0.2764,0.2921,0.2953,0.3022,0.3093,0.3088,0.3144,0.319,0.3191,0.3279,0.3435,0.3572,0.3718,0.3796,0.3838,0.3816,0.3662,0.3495,0.3557,0.3345,0.3231,0.3533,0.351,0.3525,0.3525,0.3525,0.3525,0.3525,0.3525,0.2918,0.2958,0.3046,0.3133,0.3175,0.3196,0.3213,0.3305,0.341,0.3519,0.3685,0.3812,0.3923,0.4056,0.3991,0.3897,0.3821,0.3713,0.363,0.357,0.3429,0.3757,0.3851,0.3853,0.3854,0.3855,0.3857,0,0.2918,0.2965,0.3032,0.313,0.3181,0.3234,0.33,0.3356,0.3454,0.356,0.3714,0.3822,0.4001,0.4016,0.408,0.4024,0.3705,0.3835,0.3825,0.3438,0.3342,0.3184,0.3457,0.3563,0.3563,0.3563,0.3563,0.3563,0.2933,0.2967,0.3089,0.3124,0.3161,0.3243,0.328,0.3378,0.3427,0.3589,0.363,0.3784,0.388,0.3996,0.3985,0.3988,0.3821,0.3828,0.3712,0.3694,0.3587,0.3509,0.3385,0.3563,0.3563,0.3563,0.3563,0,0.2943,0.2983,0.3056,0.3148,0.3176,0.3236,0.3329,0.3369,0.3456,0.3537,0.357,0.3683,0.3772,0.3776,0.3787,0.3742,0.3688,0.377,0.3626,0.3594,0.3629,0.355,0.3598,0.3469,0.3841,0.3844,0.3847,0,0.296,0.2995,0.3073,0.31,0.3178,0.3223,0.3295,0.3341,0.3419,0.3474,0.3514,0.3587,0.3574,0.3623,0.3573,0.3628,0.3611,0.3587,0.3568,0.3431,0.3424,0.3397,0.3311,0.3507,0.3507,0.3506,0.3506,0,0.2948,0.3016,0.3068,0.3093,0.3171,0.3203,0.3244,0.3305,0.3345,0.3412,0.3457,0.3493,0.3524,0.3519,0.3503,0.3444,0.3553,0.3447,0.3513,0.3515,0.3402,0.3392,0.3502,0.3505,0.3505,0.3505,0.3505,0,0.2947,0.2985,0.305,0.3111,0.3128,0.317,0.324,0.3273,0.3324,0.3335,0.3373,0.3361,0.3411,0.3353,0.3391,0.3357,0.3338,0.3319,0.3319,0.3386,0.3297,0.3222,0.334,0.3319,0.3272,0.327,0.3269,0,0.2932,0.2986,0.299,0.3055,0.309,0.3109,0.3149,0.3185,0.3195,0.3228,0.3222,0.3241,0.3194,0.3198,0.3225,0.32,0.3238,0.3184,0.3182,0.3183,0.3248,0.3391,0.3258,0.3314,0.3248,0.325,0.3252,0,0.2902,0.2929,0.2931,0.2959,0.3,0.3024,0.3067,0.3099,0.3126,0.3123,0.3159,0.3149,0.3138,0.3128,0.3091,0.3119,0.3197,0.3072,0.3071,0.309,0.3262,0.3348,0.337,0.3167,0.317,0.3173,0.3235,0,0.2895,0.2903,0.2914,0.2937,0.2963,0.2988,0.2999,0.3014,0.3001,0.2996,0.3019,0.2982,0.2979,0.297,0.2933,0.3003,0.2977,0.2935,0.2891,0.2974,0.2986,0.2999,0.2815,0.2813,0.2812,0.281,0,0,0.2866,0.2858,0.284,0.2865,0.2883,0.2875,0.2909,0.2906,0.2893,0.2896,0.2865,0.2854,0.2817,0.2844,0.2867,0.2837,0.2843,0.2829,0.2926,0.2938,0.295,0.2967,0.2982,0.2808,0.2807,0.2807,0.2806,0,0.2842,0.2823,0.283,0.2843,0.2857,0.2852,0.2864,0.2852,0.2841,0.2848,0.2805,0.2807,0.2768,0.2759,0.2746,0.2812,0.2775,0.2801,0.2883,0.2911,0.2926,0.2939,0.2959,0.2973,0.2803,0.2803,0.2803,0,0.282,0.2806,0.28,0.2795,0.2791,0.2815,0.2771,0.2784,0.2799,0.2726,0.2728,0.2701,0.2664,0.2673,0.2674,0.2648,0.2717,0.2672,0.268,0.2708,0.2735,0.2752,0.2768,0.2571,0.2571,0.257,0,0,0.2811,0.28,0.2791,0.279,0.2794,0.2775,0.2774,0.2764,0.2742,0.2731,0.2695,0.2666,0.2652,0.264,0.2621,0.2628,0.2628,0.2646,0.2657,0.2666,0.2698,0.2728,0.2745,0.2568,0.2568,0.2568,0,0,0.2802,0.2775,0.2768,0.2759,0.2767,0.2737,0.2744,0.2728,0.2706,0.2701,0.2642,0.2631,0.2638,0.2607,0.2584,0.2608,0.2562,0.2565,0.2626,0.2639,0.265,0.2692,0.2522,0,0,0,0,0,0.2782,0.2781,0.2776,0.2773,0.274,0.2745,0.2741,0.2714,0.2691,0.2702,0.2665,0.2624,0.2589,0.2567,0.2558,0.2586,0.2539,0.2544,0.2549,0.2629,0.2643,0.2655,0,0,0,0,0,0,0.278,0.2775,0.2777,0.2746,0.274,0.2743,0.2697,0.2688,0.269,0.2685,0.2632,0.2622,0.258,0.2568,0.256,0.2589,0.2524,0.2541,0.2546,0.2549,0.2634,0.2645,0.2655,0,0,0,0,0,0.2779,0.2775,0.2727,0.2746,0.274,0.2711,0.2695,0.2689,0.2683,0.2633,0.2622,0.2667,0.2581,0.2572,0.2563,0.2594,0.2529,0.2526,0.2544,0.2547,0.255,0.2639,0,0,0,0,0,0,0.2779,0.2759,0.2725,0.2723,0.2742,0.2711,0.2703,0.2689,0.2629,0.2621,0.2663,0.266,0.2582,0.2574,0.2568,0.2599,0.2533,0.253,0.2529,0.2547,0.2549,0.2552,0,0,0,0,0,0,0.2762,0.2757,0.2724,0.272,0.2716,0.2711,0.2704,0.2679,0.2628,0.266,0.2657,0.2662,0.2591,0.2577,0.2571,0.2534,0.2536,0.2534,0.2532,0.2531,0.2549,0.2551,0,0,0,0,0,0,0.276,0.2755,0.2719,0.2717,0.2714,0.2683,0.2687,0.2649,0.2642,0.2662,0.264,0.2639,0.2594,0.2587,0.2574,0.2539,0.2535,0.2536,0.2534,0.2533,0.2532,0,0,0,0,0,0,0,0.2758,0.279,0.2746,0.2715,0.2712,0.2705,0.2704,0.2702,0.2642,0.2641,0.264,0.2639,0.2551,0.2548,0.2545,0.2544,0,0,0.2536,0.2535,0,0,0,0,0,0,0,0,0.2792,0.2791,0.2746,0.2746,0.2746,0.2705,0.2704,0.2703,0.2642,0.2641,0.264,0.264,0.255,0.2548,0.2545,0,0,0,0,0,0,0,0,0,0,0,0,0,0,0,0.2746,0.2746,0,0.2705,0.2704,0.2703,0.2642,0.2641,0.2641,0.264,0.2549,0.2547,0.2546,0,0,0,0,0,0,0,0,0,0,0,0,0,0,0,0,0,0,0,0,0,0,0,0,0,0,0,0,0,0,0,0,0,0,0,0,0,0,0,0,0,0,0,0,0,0,0,0,0,0,0,0,0,0,0,0,0,0,0,0,0,0,0,0,0,0,0,0,0]}],[{"header":{"parameterUnit":"kt","parameterCategory":2,"dx":1,"dy":1,"la1":30.253999710083008,"la2":30.299108505249023,"lo1":-89.0895004272461,"lo2":-89.04439544677734,"nx":28,"ny":28,"refTime":"2022-09-29T21:00:00:Z","depth":"0","parameterNumber":3,"parameterNumberName":"V-component_of_CURRENTS"},"data":[-0.0103,-0.0055,-0.0064,0.0102,0.0132,0.0293,0.041,0.0533,0.0606,0.0573,0.0437,0.0224,-0.0656,-0.1972,-0.3102,-0.326,-0.3624,-0.3611,-0.3867,-0.3393,-0.333,-0.327,-0.3353,-0.388,-0.3882,-0.4531,-0.4538,-0.4544,-0.0147,-0.0105,-0.0131,-0.0122,-0.0024,-0.0014,0.0193,0.0287,0.0469,0.0525,0.0579,0.0194,-0.039,-0.1019,-0.1918,-0.2384,-0.2478,-0.2692,-0.2802,-0.2866,-0.2113,-0.2154,-0.2435,-0.2435,-0.2435,-0.2434,-0.2434,-0.2433,-0.0231,-0.0237,-0.0262,-0.0281,-0.0231,-0.007,0.0003,0.0133,0.0287,0.0422,0.0368,0.0336,-0.017,-0.0723,-0.1001,-0.171,-0.1635,-0.1907,-0.2034,-0.2076,-0.2247,-0.1426,-0.1531,-0.1531,-0.1532,-0.1532,-0.1532,0,-0.0282,-0.0315,-0.0345,-0.0374,-0.0354,-0.0286,-0.0199,-0.0106,-0.0018,0.0054,0.0146,0.0135,-0.0168,-0.0444,-0.0855,-0.102,-0.1489,-0.1278,-0.1674,-0.1823,-0.1951,-0.2096,-0.1194,-0.1238,-0.1237,-0.1236,-0.1235,-0.1234,-0.039,-0.0377,-0.0455,-0.0456,-0.0464,-0.0462,-0.041,-0.0385,-0.0278,-0.0212,-0.0127,-0.0228,-0.0232,-0.0528,-0.0804,-0.1036,-0.1291,-0.1231,-0.1232,-0.1643,-0.1815,-0.1893,-0.1999,-0.1218,-0.122,-0.1222,-0.1223,0,-0.0439,-0.0463,-0.0477,-0.053,-0.0531,-0.0551,-0.0502,-0.0436,-0.0415,-0.0295,-0.0278,-0.0333,-0.0434,-0.0584,-0.0715,-0.0858,-0.1168,-0.1059,-0.105,-0.1079,-0.1591,-0.1728,-0.2006,-0.2151,-0.1234,-0.1236,-0.1239,0,-0.0522,-0.051,-0.0583,-0.0574,-0.0572,-0.0628,-0.0568,-0.0578,-0.0525,-0.0431,-0.0493,-0.0446,-0.0568,-0.0631,-0.0738,-0.0895,-0.0829,-0.1013,-0.1043,-0.1016,-0.1025,-0.1362,-0.1505,-0.0898,-0.0898,-0.0897,-0.0897,0,-0.0613,-0.0612,-0.0607,-0.0625,-0.0669,-0.0661,-0.0682,-0.0685,-0.0634,-0.0611,-0.0571,-0.059,-0.0589,-0.0657,-0.0772,-0.0773,-0.085,-0.0856,-0.1015,-0.1024,-0.1018,-0.1029,-0.1393,-0.0896,-0.0896,-0.0896,-0.0896,0,-0.0671,-0.0672,-0.0665,-0.0689,-0.069,-0.0716,-0.0731,-0.0731,-0.071,-0.0701,-0.0682,-0.0689,-0.0688,-0.0743,-0.0794,-0.0787,-0.0852,-0.0892,-0.0895,-0.0995,-0.1039,-0.108,-0.1085,-0.1466,-0.0964,-0.0964,-0.0964,0,-0.0759,-0.0732,-0.0736,-0.0747,-0.0754,-0.0816,-0.0811,-0.0853,-0.0859,-0.0832,-0.0833,-0.0795,-0.0849,-0.0831,-0.0847,-0.0871,-0.0893,-0.0883,-0.0934,-0.0935,-0.1033,-0.1035,-0.1017,-0.1081,-0.0964,-0.0964,-0.0964,0,-0.0825,-0.0809,-0.0802,-0.0819,-0.0878,-0.0908,-0.0908,-0.0928,-0.0902,-0.0942,-0.0897,-0.0881,-0.0893,-0.0873,-0.0881,-0.0887,-0.09,-0.0918,-0.0919,-0.0952,-0.0919,-0.1024,-0.1035,-0.0899,-0.0898,-0.0897,-0.0964,0,-0.0916,-0.0895,-0.0858,-0.088,-0.092,-0.0917,-0.0985,-0.0996,-0.1022,-0.1045,-0.1004,-0.1003,-0.097,-0.0973,-0.0974,-0.0937,-0.0963,-0.0964,-0.0975,-0.0951,-0.0988,-0.0987,-0.0996,-0.0996,-0.0997,-0.0997,0,0,-0.1,-0.0947,-0.097,-0.0956,-0.0981,-0.1061,-0.1066,-0.1079,-0.1118,-0.1098,-0.1123,-0.1071,-0.1063,-0.1001,-0.0998,-0.0996,-0.101,-0.0989,-0.0965,-0.0961,-0.0958,-0.099,-0.099,-0.0998,-0.0998,-0.0998,-0.0998,0,-0.1015,-0.1008,-0.0971,-0.1005,-0.1046,-0.1081,-0.1091,-0.1131,-0.1132,-0.1137,-0.1133,-0.1115,-0.1082,-0.1059,-0.1041,-0.1005,-0.1019,-0.1001,-0.0972,-0.0968,-0.0964,-0.0961,-0.0992,-0.0991,-0.0999,-0.0999,-0.0999,0,-0.1092,-0.1088,-0.1082,-0.1096,-0.111,-0.1128,-0.1161,-0.1167,-0.1182,-0.1187,-0.1162,-0.1153,-0.1125,-0.1088,-0.1072,-0.1078,-0.1034,-0.1036,-0.1034,-0.1021,-0.1018,-0.1013,-0.1009,-0.1064,-0.1064,-0.1064,0,0,-0.1114,-0.1083,-0.114,-0.111,-0.1116,-0.1162,-0.1169,-0.1202,-0.12,-0.1194,-0.1188,-0.1166,-0.1136,-0.112,-0.1097,-0.1061,-0.107,-0.1044,-0.1041,-0.1038,-0.1024,-0.102,-0.1015,-0.1065,-0.1065,-0.1065,0,0,-0.1126,-0.1146,-0.1189,-0.1141,-0.1191,-0.1213,-0.1185,-0.1225,-0.1208,-0.1198,-0.1192,-0.1186,-0.1151,-0.1142,-0.1153,-0.1097,-0.1111,-0.1107,-0.1099,-0.1095,-0.1092,-0.1081,-0.1153,0,0,0,0,0,-0.1205,-0.1149,-0.1188,-0.119,-0.1192,-0.1209,-0.1211,-0.1227,-0.1232,-0.1227,-0.121,-0.1206,-0.1146,-0.1156,-0.1148,-0.1126,-0.1074,-0.1072,-0.1071,-0.1052,-0.1048,-0.1045,0,0,0,0,0,0,-0.1206,-0.1204,-0.1191,-0.1209,-0.1212,-0.1208,-0.1219,-0.1222,-0.1233,-0.1234,-0.1209,-0.1205,-0.1194,-0.1159,-0.1152,-0.1131,-0.1155,-0.1073,-0.1072,-0.1071,-0.1051,-0.1047,-0.1044,0,0,0,0,0,-0.1207,-0.1206,-0.1199,-0.121,-0.1212,-0.1237,-0.1219,-0.1222,-0.122,-0.1214,-0.121,-0.1235,-0.1194,-0.1187,-0.1155,-0.1135,-0.116,-0.1158,-0.1072,-0.1071,-0.107,-0.1049,0,0,0,0,0,0,-0.1208,-0.1198,-0.12,-0.1203,-0.1217,-0.1237,-0.1237,-0.1221,-0.1197,-0.1197,-0.1238,-0.1239,-0.1194,-0.1188,-0.1183,-0.1136,-0.1164,-0.1162,-0.116,-0.1072,-0.1071,-0.107,0,0,0,0,0,0,-0.12,-0.1199,-0.1201,-0.1208,-0.1211,-0.1237,-0.1237,-0.1208,-0.1195,-0.1219,-0.1222,-0.1239,-0.1195,-0.1189,-0.1185,-0.114,-0.1167,-0.1165,-0.1163,-0.1162,-0.1071,-0.107,0,0,0,0,0,0,-0.1201,-0.12,-0.1207,-0.1209,-0.1212,-0.1236,-0.121,-0.12,-0.1235,-0.1218,-0.1237,-0.1237,-0.1195,-0.1191,-0.1186,-0.1143,-0.1141,-0.1167,-0.1165,-0.1164,-0.1163,0,0,0,0,0,0,0,-0.1201,-0.1193,-0.1195,-0.121,-0.1212,-0.123,-0.123,-0.123,-0.1235,-0.1236,-0.1236,-0.1237,-0.1182,-0.1179,-0.1176,-0.1146,0,0,-0.1167,-0.1166,0,0,0,0,0,0,0,0,-0.1195,-0.1194,-0.1195,-0.1196,-0.1198,-0.123,-0.123,-0.123,-0.1235,-0.1236,-0.1236,-0.1237,-0.1181,-0.1179,-0.1176,0,0,0,0,0,0,0,0,0,0,0,0,0,0,0,-0.1195,-0.1196,0,-0.123,-0.123,-0.123,-0.1235,-0.1236,-0.1236,-0.1237,-0.118,-0.1178,-0.1177,0,0,0,0,0,0,0,0,0,0,0,0,0,0,0,0,0,0,0,0,0,0,0,0,0,0,0,0,0,0,0,0,0,0,0,0,0,0,0,0,0,0,0,0,0,0,0,0,0,0,0,0,0,0,0,0,0,0,0,0,0,0,0,0,0,0,0,0,0]}]],[[{"header":{"parameterUnit":"kt","parameterCategory":2,"dx":1,"dy":1,"la1":30.253999710083008,"la2":30.299108505249023,"lo1":-89.0895004272461,"lo2":-89.04439544677734,"nx":28,"ny":28,"refTime":"2022-09-29T21:00:00:Z","depth":"2","parameterNumber":2,"parameterNumberName":"U-component_of_CURRENTS"},"data":[0.2877,0.2926,0.2958,0.2955,0.2979,0.2932,0.2936,0.2925,0.2916,0.281,0.2702,0.2789,0.2816,0.2324,0.2267,0.2087,0.219,0.2016,0.3009,0.2675,0.2705,0.2756,0.265,0,0,0,0,0,0.2887,0.2934,0.3005,0.3072,0.3065,0.312,0.3164,0.314,0.3211,0.325,0.3324,0.2961,0.2887,0.288,0.267,0.2706,0.254,0.2605,0.2285,0.2326,0.2361,0.2257,0.1967,0.1963,0.1959,0.1956,0,0,0.2895,0.2939,0.3031,0.3114,0.3155,0.3172,0.3189,0.3273,0.3374,0.3434,0.3596,0.3589,0.3547,0.3456,0.3349,0.3259,0.3508,0.3264,0.3263,0.3269,0.3225,0.3191,0.3186,0.319,0.3194,0.3198,0.3201,0,0.2896,0.2945,0.3015,0.3111,0.3161,0.3213,0.328,0.3336,0.3438,0.354,0.3693,0.3796,0.391,0.3761,0.3801,0.3728,0.3536,0.3495,0.3914,0.3009,0.2958,0.2913,0.2919,0.2921,0.2924,0.2927,0.2929,0.293,0.2912,0.2949,0.3071,0.3105,0.3141,0.3226,0.3266,0.3366,0.3415,0.358,0.3618,0.3776,0.3865,0.3982,0.39,0.3883,0.3908,0.3561,0.341,0.3742,0.3703,0.3685,0.3669,0.2968,0.2963,0.2959,0.2956,0,0.2922,0.2964,0.3038,0.3133,0.3161,0.3222,0.3317,0.3359,0.3448,0.3528,0.356,0.3676,0.3765,0.3769,0.378,0.3735,0.3746,0.3762,0.3369,0.3309,0.3655,0.3643,0.3825,0.3829,0.3833,0.3836,0.3838,0,0.2938,0.2975,0.3057,0.3087,0.3164,0.3214,0.3286,0.3331,0.3411,0.3465,0.3507,0.358,0.3567,0.3616,0.3565,0.362,0.3603,0.3579,0.356,0.3205,0.3181,0.3369,0.3353,0.3498,0.3498,0.3497,0.3497,0,0.2927,0.2997,0.3052,0.3079,0.316,0.3192,0.3234,0.3297,0.3337,0.3405,0.345,0.3486,0.3518,0.3512,0.3496,0.3437,0.3544,0.3438,0.3505,0.3507,0.3181,0.3154,0.3496,0.3496,0.3496,0.3496,0.3496,0,0.2925,0.2965,0.3033,0.3096,0.3114,0.3158,0.3231,0.3265,0.3316,0.3328,0.3367,0.3355,0.3404,0.3346,0.3384,0.335,0.3331,0.3311,0.3312,0.3379,0.329,0.2988,0.3052,0.3266,0.3264,0.3262,0.3261,0,0.2909,0.2966,0.297,0.3039,0.3075,0.3097,0.3138,0.3177,0.3188,0.3221,0.3215,0.3234,0.3187,0.3192,0.3219,0.3193,0.3231,0.3178,0.3175,0.3176,0.3241,0.3385,0.3002,0.3036,0.324,0.3242,0.3244,0,0.2879,0.2908,0.2911,0.2941,0.2986,0.3011,0.3056,0.309,0.3117,0.3116,0.3152,0.3143,0.3132,0.3122,0.3085,0.3112,0.319,0.3066,0.3065,0.3084,0.3255,0.3341,0.3363,0.316,0.3163,0.3166,0.3228,0,0.2874,0.2882,0.2893,0.292,0.2948,0.2974,0.2988,0.3004,0.2993,0.2989,0.3012,0.2975,0.2973,0.2963,0.2926,0.2997,0.2971,0.2929,0.2884,0.2967,0.2979,0.2992,0.2809,0.2807,0.2805,0.2804,0,0,0.2845,0.2837,0.2822,0.2848,0.2868,0.2863,0.2899,0.2896,0.2886,0.2889,0.2858,0.2847,0.2811,0.2838,0.286,0.283,0.2836,0.2822,0.2919,0.2932,0.2944,0.296,0.2975,0.2802,0.2801,0.2801,0.28,0,0.2822,0.2804,0.2811,0.2827,0.2843,0.2839,0.2853,0.2843,0.2832,0.2841,0.2798,0.28,0.2761,0.2753,0.274,0.2805,0.2769,0.2794,0.2876,0.2905,0.292,0.2933,0.2952,0.2966,0.2796,0.2797,0.2797,0,0.2802,0.2789,0.2784,0.2781,0.2779,0.2804,0.2761,0.2775,0.2792,0.2719,0.2722,0.2694,0.2657,0.2666,0.2668,0.2641,0.271,0.2666,0.2674,0.2701,0.2729,0.2746,0.2761,0.2565,0.2564,0.2564,0,0,0.2794,0.2783,0.2777,0.2776,0.2782,0.2765,0.2765,0.2756,0.2735,0.2724,0.2688,0.2659,0.2645,0.2634,0.2615,0.2621,0.2622,0.264,0.2651,0.266,0.2692,0.2722,0.2738,0.2562,0.2562,0.2562,0,0,0.2785,0.276,0.2757,0.2747,0.2758,0.2729,0.2735,0.2721,0.2699,0.2694,0.2635,0.2624,0.2632,0.26,0.2577,0.2602,0.2556,0.2559,0.262,0.2633,0.2643,0.2686,0.2516,0,0,0,0,0,0.277,0.2767,0.2765,0.2762,0.2731,0.2737,0.2733,0.2707,0.2684,0.2695,0.2659,0.2618,0.2582,0.256,0.2551,0.258,0.2533,0.2538,0.2543,0.2623,0.2637,0.2649,0,0,0,0,0,0,0.2768,0.2763,0.2765,0.2736,0.273,0.2735,0.2689,0.2681,0.2683,0.2678,0.2626,0.2616,0.2573,0.2561,0.2554,0.2583,0.2518,0.2535,0.2539,0.2543,0.2628,0.2639,0.2649,0,0,0,0,0,0.2767,0.2764,0.2718,0.2736,0.2731,0.2703,0.2688,0.2681,0.2676,0.2626,0.2616,0.266,0.2575,0.2565,0.2556,0.2588,0.2523,0.252,0.2538,0.2541,0.2544,0.2633,0,0,0,0,0,0,0.2767,0.2748,0.2716,0.2714,0.2732,0.2702,0.2695,0.2681,0.2622,0.2614,0.2656,0.2653,0.2576,0.2568,0.2561,0.2593,0.2527,0.2524,0.2522,0.254,0.2543,0.2545,0,0,0,0,0,0,0.275,0.2746,0.2715,0.2711,0.2708,0.2702,0.2695,0.2671,0.2621,0.2653,0.265,0.2656,0.2584,0.257,0.2565,0.2528,0.253,0.2527,0.2526,0.2524,0.2543,0.2545,0,0,0,0,0,0,0.2748,0.2744,0.2711,0.2708,0.2705,0.2675,0.2678,0.2642,0.2636,0.2655,0.2634,0.2633,0.2587,0.2581,0.2567,0.2533,0.2529,0.253,0.2528,0.2527,0.2526,0,0,0,0,0,0,0,0.2746,0.2777,0.2737,0.2706,0.2704,0.2698,0.2696,0.2695,0.2635,0.2635,0.2634,0.2633,0.2544,0.2542,0.2539,0.2537,0,0,0.253,0.2529,0,0,0,0,0,0,0,0,0.2778,0.2777,0.2737,0.2737,0.2737,0.2698,0.2696,0.2695,0.2635,0.2635,0.2634,0.2633,0.2544,0.2541,0.2539,0,0,0,0,0,0,0,0,0,0,0,0,0,0,0,0.2737,0.2737,0,0.2697,0.2696,0.2696,0.2635,0.2635,0.2634,0.2634,0.2543,0.2541,0.2539,0,0,0,0,0,0,0,0,0,0,0,0,0,0,0,0,0,0,0,0,0,0,0,0,0,0,0,0,0,0,0,0,0,0,0,0,0,0,0,0,0,0,0,0,0,0,0,0,0,0,0,0,0,0,0,0,0,0,0,0,0,0,0,0,0,0,0,0,0]}],[{"header":{"parameterUnit":"kt","parameterCategory":2,"dx":1,"dy":1,"la1":30.253999710083008,"la2":30.299108505249023,"lo1":-89.0895004272461,"lo2":-89.04439544677734,"nx":28,"ny":28,"refTime":"2022-09-29T21:00:00:Z","depth":"2","parameterNumber":3,"parameterNumberName":"V-component_of_CURRENTS"},"data":[0.0062,0.01,0.0083,0.0248,0.0267,0.0444,0.0566,0.0778,0.0937,0.115,0.1182,0.1216,0.0763,0.0501,0.0119,-0.0193,-0.032,-0.0256,-0.0546,-0.024,-0.0246,-0.0543,-0.0473,0,0,0,0,0,0.0008,0.0013,-0.0017,0.0004,0.0111,0.0118,0.0329,0.0462,0.0669,0.0813,0.0928,0.0831,0.0609,0.0215,-0.0257,-0.0587,-0.0519,-0.0758,-0.0538,-0.0546,-0.0555,-0.0509,-0.0462,-0.0463,-0.0464,-0.0464,0,0,-0.0104,-0.0115,-0.0147,-0.0157,-0.0103,0.0066,0.014,0.0277,0.0436,0.0626,0.0563,0.0591,0.0357,-0.0047,-0.0354,-0.0745,-0.0781,-0.088,-0.0875,-0.0873,-0.0849,-0.0863,-0.0889,-0.0891,-0.0894,-0.0896,-0.0898,0,-0.0155,-0.0188,-0.0224,-0.0247,-0.0224,-0.0154,-0.0071,0.0021,0.0101,0.0179,0.0273,0.0266,0.0015,-0.014,-0.0534,-0.0672,-0.0862,-0.09,-0.1085,-0.0618,-0.0621,-0.0639,-0.0646,-0.0606,-0.0607,-0.0608,-0.0609,-0.0609,-0.0264,-0.0255,-0.0331,-0.0325,-0.0333,-0.0337,-0.0291,-0.027,-0.0165,-0.0101,-0.0013,-0.0119,-0.0116,-0.0415,-0.0632,-0.0848,-0.0952,-0.0912,-0.0883,-0.1073,-0.1096,-0.109,-0.1085,-0.0624,-0.0622,-0.062,-0.0619,0,-0.0314,-0.0338,-0.0352,-0.041,-0.0412,-0.0432,-0.0387,-0.0326,-0.0306,-0.0184,-0.0167,-0.0226,-0.0328,-0.0476,-0.0607,-0.075,-0.0876,-0.0951,-0.0734,-0.074,-0.1064,-0.1063,-0.1122,-0.1126,-0.113,-0.1133,-0.1135,0,-0.0392,-0.0384,-0.0463,-0.0457,-0.0454,-0.0519,-0.0459,-0.0465,-0.0415,-0.0319,-0.0384,-0.0337,-0.0458,-0.052,-0.0626,-0.0785,-0.0717,-0.0903,-0.0933,-0.0723,-0.0718,-0.0805,-0.0807,-0.0784,-0.0783,-0.0783,-0.0782,0,-0.0485,-0.0487,-0.0486,-0.0508,-0.0556,-0.0548,-0.0569,-0.0575,-0.0523,-0.05,-0.0461,-0.0479,-0.0478,-0.0545,-0.066,-0.066,-0.0737,-0.0741,-0.0904,-0.0913,-0.0729,-0.0725,-0.0782,-0.0781,-0.0781,-0.0781,-0.0781,0,-0.0541,-0.0543,-0.0541,-0.0568,-0.057,-0.06,-0.0618,-0.062,-0.0598,-0.059,-0.0571,-0.0577,-0.0575,-0.063,-0.068,-0.0673,-0.0738,-0.0777,-0.0781,-0.0883,-0.0927,-0.078,-0.0741,-0.0849,-0.0849,-0.0849,-0.0849,0,-0.0628,-0.0603,-0.0607,-0.0624,-0.0634,-0.07,-0.0696,-0.0742,-0.0748,-0.0721,-0.0721,-0.0681,-0.0736,-0.0717,-0.0733,-0.0755,-0.0778,-0.0768,-0.0818,-0.0819,-0.0922,-0.0924,-0.0697,-0.0745,-0.0849,-0.0849,-0.0849,0,-0.0695,-0.0678,-0.0673,-0.0694,-0.0759,-0.0792,-0.0793,-0.0814,-0.0789,-0.0831,-0.0786,-0.0767,-0.078,-0.0759,-0.0765,-0.0771,-0.0784,-0.0802,-0.0803,-0.0837,-0.0804,-0.0913,-0.0924,-0.0783,-0.0782,-0.0782,-0.0849,0,-0.0788,-0.0767,-0.0728,-0.0756,-0.0799,-0.0798,-0.0871,-0.0882,-0.0911,-0.0935,-0.0893,-0.0891,-0.0856,-0.0858,-0.0858,-0.082,-0.0847,-0.0847,-0.0858,-0.0834,-0.0871,-0.0871,-0.0878,-0.0879,-0.0879,-0.0879,0,0,-0.0874,-0.082,-0.0844,-0.0831,-0.0859,-0.0944,-0.0953,-0.0965,-0.1008,-0.0988,-0.1014,-0.0958,-0.0949,-0.0884,-0.0882,-0.0878,-0.0893,-0.0872,-0.0847,-0.0844,-0.084,-0.0873,-0.0873,-0.088,-0.088,-0.088,-0.088,0,-0.0888,-0.0883,-0.0845,-0.0883,-0.0928,-0.0965,-0.0976,-0.1019,-0.1021,-0.1027,-0.1023,-0.1003,-0.0968,-0.0944,-0.0924,-0.0887,-0.0901,-0.0883,-0.0855,-0.0851,-0.0847,-0.0843,-0.0875,-0.0874,-0.0881,-0.0881,-0.0881,0,-0.0971,-0.0966,-0.0962,-0.0977,-0.0993,-0.1014,-0.1048,-0.1054,-0.1072,-0.1076,-0.1051,-0.1041,-0.1011,-0.0973,-0.0955,-0.0962,-0.0917,-0.0919,-0.0916,-0.0903,-0.09,-0.0895,-0.0891,-0.0945,-0.0945,-0.0946,0,0,-0.0994,-0.0962,-0.1024,-0.0993,-0.0999,-0.1049,-0.1055,-0.1092,-0.109,-0.1084,-0.1077,-0.1055,-0.1022,-0.1006,-0.0981,-0.0944,-0.0952,-0.0926,-0.0923,-0.0921,-0.0907,-0.0902,-0.0897,-0.0946,-0.0946,-0.0946,0,0,-0.1006,-0.1029,-0.1078,-0.1027,-0.108,-0.1102,-0.1072,-0.1115,-0.1097,-0.1089,-0.1081,-0.1074,-0.1038,-0.1028,-0.104,-0.0982,-0.0995,-0.0992,-0.0985,-0.0981,-0.0978,-0.0968,-0.104,0,0,0,0,0,-0.1092,-0.1031,-0.1077,-0.1078,-0.1081,-0.1097,-0.1099,-0.1116,-0.1123,-0.1117,-0.11,-0.1096,-0.1032,-0.1043,-0.1034,-0.1013,-0.0956,-0.0954,-0.0953,-0.0936,-0.0932,-0.0928,0,0,0,0,0,0,-0.1093,-0.1092,-0.1079,-0.1097,-0.11,-0.1097,-0.1109,-0.1112,-0.1124,-0.1125,-0.11,-0.1095,-0.1083,-0.1046,-0.1039,-0.1018,-0.1043,-0.0955,-0.0954,-0.0953,-0.0934,-0.0931,-0.0928,0,0,0,0,0,-0.1094,-0.1093,-0.1088,-0.1098,-0.11,-0.1126,-0.1109,-0.1112,-0.1111,-0.1103,-0.11,-0.1127,-0.1083,-0.1076,-0.1042,-0.1022,-0.1048,-0.1045,-0.0954,-0.0953,-0.0952,-0.0933,0,0,0,0,0,0,-0.1095,-0.1085,-0.1089,-0.1092,-0.1106,-0.1126,-0.1126,-0.1111,-0.1086,-0.1086,-0.1129,-0.113,-0.1083,-0.1077,-0.1071,-0.1024,-0.1052,-0.1049,-0.1048,-0.0954,-0.0953,-0.0952,0,0,0,0,0,0,-0.1087,-0.1086,-0.109,-0.1098,-0.1102,-0.1126,-0.1126,-0.1095,-0.1084,-0.111,-0.1113,-0.1129,-0.1084,-0.1078,-0.1073,-0.1025,-0.1055,-0.1053,-0.1051,-0.105,-0.0953,-0.0952,0,0,0,0,0,0,-0.1087,-0.1087,-0.1097,-0.1099,-0.1102,-0.1126,-0.1097,-0.1087,-0.1126,-0.1109,-0.1128,-0.1129,-0.1084,-0.108,-0.1075,-0.1028,-0.1026,-0.1055,-0.1053,-0.1052,-0.1051,0,0,0,0,0,0,0,-0.1088,-0.108,-0.1084,-0.11,-0.1103,-0.1119,-0.1119,-0.1118,-0.1126,-0.1127,-0.1128,-0.1128,-0.1071,-0.1068,-0.1065,-0.1031,0,0,-0.1055,-0.1054,0,0,0,0,0,0,0,0,-0.1081,-0.108,-0.1084,-0.1085,-0.1087,-0.1119,-0.1119,-0.1118,-0.1126,-0.1127,-0.1127,-0.1128,-0.107,-0.1068,-0.1065,0,0,0,0,0,0,0,0,0,0,0,0,0,0,0,-0.1084,-0.1085,0,-0.1119,-0.1119,-0.1119,-0.1126,-0.1127,-0.1127,-0.1128,-0.1069,-0.1067,-0.1065,0,0,0,0,0,0,0,0,0,0,0,0,0,0,0,0,0,0,0,0,0,0,0,0,0,0,0,0,0,0,0,0,0,0,0,0,0,0,0,0,0,0,0,0,0,0,0,0,0,0,0,0,0,0,0,0,0,0,0,0,0,0,0,0,0,0,0,0,0]}]],[[{"header":{"parameterUnit":"kt","parameterCategory":2,"dx":1,"dy":1,"la1":30.253999710083008,"la2":30.299108505249023,"lo1":-89.0895004272461,"lo2":-89.04439544677734,"nx":28,"ny":28,"refTime":"2022-09-29T21:00:00:Z","depth":"4","parameterNumber":2,"parameterNumberName":"U-component_of_CURRENTS"},"data":[0.1149,0.1221,0.122,0.1211,0.1241,0.1321,0.1382,0.1483,0.1479,0.1648,0.1663,0.1801,0.1841,0.1955,0.1891,0.1908,0.1906,0.2089,0.2083,0.2172,0.219,0.2206,0.2107,0,0,0,0,0,0.1175,0.1218,0.1256,0.1298,0.1381,0.1436,0.1561,0.1644,0.1807,0.1779,0.1883,0.1914,0.1931,0.1992,0.1922,0.2095,0.2144,0.2003,0.2069,0.2183,0.2203,0.21,0,0,0,0,0,0,0.1218,0.1242,0.1331,0.1378,0.1475,0.1513,0.1589,0.1681,0.1776,0.199,0.1987,0.211,0.2232,0.219,0.2198,0.2174,0.2139,0.2063,0.2088,0.2108,0.2006,0.1899,0.1793,0,0,0,0,0,0.1263,0.1327,0.137,0.1462,0.1543,0.1619,0.1755,0.1797,0.1979,0.2145,0.2184,0.2218,0.2268,0.2286,0.2296,0.2287,0.2423,0.2364,0.2374,0.232,0.2262,0.2243,0.2245,0.2278,0.2281,0.2282,0.2283,0,0.1316,0.1359,0.1471,0.1512,0.1578,0.1692,0.1778,0.1943,0.2024,0.2231,0.2262,0.2401,0.246,0.2407,0.2479,0.2472,0.2437,0.2416,0.2359,0.2293,0.227,0.2267,0.2263,0.2299,0.2298,0.2297,0.2295,0,0.1345,0.1425,0.1479,0.1595,0.1642,0.1691,0.1869,0.1947,0.2107,0.2227,0.2291,0.2428,0.2494,0.2557,0.2627,0.2545,0.2536,0.2489,0.2621,0.2605,0.2297,0.2287,0.2325,0.232,0.2315,0.231,0.2307,0,0.1398,0.1446,0.1554,0.1581,0.1652,0.1731,0.185,0.1921,0.2075,0.2165,0.2291,0.2358,0.2473,0.2536,0.2547,0.2511,0.2631,0.2432,0.2411,0.2543,0.2532,0.251,0.2494,0.2641,0.2641,0.264,0.264,0,0.1401,0.1495,0.1558,0.1578,0.1668,0.1731,0.1797,0.1914,0.1999,0.2146,0.2225,0.2336,0.2422,0.2471,0.2512,0.2497,0.2596,0.2572,0.2414,0.2401,0.2501,0.2486,0.264,0.2639,0.2639,0.2639,0.2639,0,0.1432,0.1478,0.1556,0.1623,0.1648,0.1696,0.1797,0.1865,0.1994,0.2062,0.2168,0.2224,0.2341,0.2316,0.2428,0.24,0.2419,0.2432,0.2435,0.2231,0.2165,0.2285,0.2423,0.2421,0.242,0.2418,0.2417,0,0.1397,0.1472,0.1517,0.1581,0.1615,0.1661,0.173,0.1797,0.1873,0.1964,0.2041,0.2141,0.2139,0.2201,0.2254,0.2296,0.2345,0.229,0.2325,0.2325,0.2146,0.2233,0.2334,0.2394,0.2397,0.2399,0.2401,0,0.1354,0.1448,0.1463,0.1489,0.1553,0.1567,0.1655,0.1727,0.1789,0.187,0.1958,0.206,0.2095,0.2123,0.2148,0.22,0.2306,0.2188,0.2188,0.22,0.241,0.2227,0.2222,0.232,0.2323,0.2325,0.2385,0,0.1334,0.1387,0.1423,0.1477,0.1506,0.1551,0.1585,0.1642,0.1694,0.1726,0.1846,0.189,0.1964,0.1998,0.2001,0.2113,0.2092,0.2074,0.2028,0.2119,0.213,0.2143,0.1962,0.196,0.1958,0.1957,0,0,0.1276,0.133,0.1359,0.1398,0.1424,0.1445,0.1485,0.1518,0.1574,0.1621,0.1639,0.1757,0.1793,0.1885,0.1935,0.1939,0.1953,0.1943,0.207,0.2083,0.2095,0.211,0.2124,0.1954,0.1953,0.1952,0.1952,0,0.1255,0.1292,0.1342,0.136,0.1408,0.1412,0.1437,0.1469,0.1516,0.158,0.1603,0.168,0.1745,0.1788,0.1812,0.1908,0.1899,0.1934,0.2003,0.2054,0.2069,0.2082,0.2101,0.2115,0.1948,0.1948,0.1948,0,0.1211,0.1236,0.1262,0.13,0.1324,0.1353,0.135,0.1402,0.1439,0.1438,0.1532,0.1567,0.1596,0.1681,0.1725,0.1701,0.184,0.1796,0.1805,0.1799,0.1849,0.1866,0.1882,0.1679,0.1678,0.1677,0,0,0.1195,0.1239,0.1252,0.1292,0.1314,0.1326,0.1348,0.1369,0.1405,0.1434,0.1474,0.1524,0.1571,0.1614,0.1648,0.1711,0.1705,0.1765,0.1778,0.1789,0.1789,0.1841,0.1858,0.1675,0.1675,0.1675,0,0,0.1182,0.1216,0.1223,0.127,0.129,0.1293,0.1339,0.1345,0.1399,0.143,0.1446,0.1462,0.1558,0.1557,0.1521,0.1657,0.1602,0.1609,0.167,0.1685,0.1697,0.1691,0.151,0,0,0,0,0,0.1166,0.1204,0.121,0.1219,0.1253,0.1275,0.128,0.1323,0.1343,0.1376,0.1423,0.1426,0.1553,0.1521,0.1527,0.1599,0.1641,0.1647,0.1653,0.1744,0.1761,0.1775,0,0,0,0,0,0,0.1169,0.1178,0.1209,0.121,0.1219,0.1273,0.1281,0.1291,0.1343,0.1353,0.1412,0.1424,0.1435,0.1518,0.1523,0.1593,0.1508,0.1643,0.1648,0.1653,0.175,0.1764,0.1775,0,0,0,0,0,0.1172,0.1179,0.1233,0.1209,0.1217,0.127,0.1283,0.1292,0.1342,0.1368,0.1383,0.1385,0.1432,0.1443,0.1521,0.1591,0.1504,0.1506,0.1647,0.1651,0.1654,0.1757,0,0,0,0,0,0,0.1174,0.1171,0.1235,0.1238,0.1238,0.1271,0.128,0.1293,0.1356,0.1369,0.1337,0.1344,0.1429,0.1438,0.1446,0.1593,0.1501,0.1503,0.1505,0.165,0.1653,0.1656,0,0,0,0,0,0,0.1168,0.1174,0.1236,0.1269,0.1276,0.1271,0.128,0.1293,0.1357,0.1321,0.1328,0.134,0.1442,0.1434,0.1441,0.1456,0.1499,0.1501,0.1502,0.1503,0.1652,0.1655,0,0,0,0,0,0,0.1171,0.1175,0.1268,0.1273,0.1279,0.1311,0.1285,0.1331,0.1348,0.1318,0.1356,0.136,0.1438,0.1445,0.1437,0.1448,0.1454,0.1499,0.15,0.1501,0.1502,0,0,0,0,0,0,0,0.1173,0.114,0.1224,0.1277,0.1282,0.1266,0.1266,0.1266,0.1349,0.1352,0.1355,0.1358,0.1487,0.1489,0.1492,0.1442,0,0,0.1499,0.15,0,0,0,0,0,0,0,0,0.1139,0.114,0.1225,0.1226,0.1227,0.1266,0.1266,0.1266,0.1349,0.1352,0.1355,0.1357,0.1488,0.1489,0.1491,0,0,0,0,0,0,0,0,0,0,0,0,0,0,0,0.1225,0.1226,0,0.1266,0.1266,0.1266,0.135,0.1352,0.1354,0.1356,0.1488,0.149,0.1491,0,0,0,0,0,0,0,0,0,0,0,0,0,0,0,0,0,0,0,0,0,0,0,0,0,0,0,0,0,0,0,0,0,0,0,0,0,0,0,0,0,0,0,0,0,0,0,0,0,0,0,0,0,0,0,0,0,0,0,0,0,0,0,0,0,0,0,0,0]}],[{"header":{"parameterUnit":"kt","parameterCategory":2,"dx":1,"dy":1,"la1":30.253999710083008,"la2":30.299108505249023,"lo1":-89.0895004272461,"lo2":-89.04439544677734,"nx":28,"ny":28,"refTime":"2022-09-29T21:00:00:Z","depth":"4","parameterNumber":3,"parameterNumberName":"V-component_of_CURRENTS"},"data":[0.1138,0.1215,0.1246,0.1337,0.1413,0.1494,0.1536,0.1543,0.1511,0.1474,0.1356,0.1256,0.1034,0.1165,0.0787,0.0737,0.0602,0.0428,0.0423,0.0231,0.0232,0.0232,0.0305,0,0,0,0,0,0.1111,0.1134,0.1247,0.1358,0.1438,0.1489,0.1544,0.1564,0.1548,0.1494,0.1448,0.1323,0.1063,0.0974,0.0796,0.0762,0.05,0.0545,0.0384,0.0231,0.0232,0.0303,0,0,0,0,0,0,0.1059,0.1112,0.1208,0.1319,0.141,0.146,0.1504,0.1504,0.1507,0.1442,0.1429,0.1276,0.1191,0.0944,0.0777,0.0602,0.052,0.0422,0.0413,0.0411,0.0495,0.0577,0.053,0,0,0,0,0,0.1004,0.1042,0.1122,0.1256,0.1331,0.1407,0.1462,0.1475,0.1458,0.1443,0.1371,0.123,0.1108,0.0901,0.0731,0.0535,0.0374,0.0327,0.0325,0.0287,0.0329,0.0304,0.0312,0.0236,0.0236,0.0236,0.0236,0,0.0964,0.0999,0.1122,0.1183,0.1217,0.1303,0.1348,0.1349,0.1366,0.1335,0.1332,0.1233,0.1159,0.0895,0.0722,0.0459,0.0424,0.0331,0.0292,0.0332,0.0304,0.0312,0.032,0.0237,0.0236,0.0236,0.0236,0,0.0936,0.0959,0.1044,0.1117,0.1146,0.1214,0.1271,0.1296,0.1276,0.1282,0.1265,0.118,0.1052,0.0895,0.0688,0.0569,0.0406,0.0361,0.045,0.0419,0.0317,0.0325,0.0238,0.0237,0.0237,0.0237,0.0237,0,0.0901,0.0948,0.1002,0.1043,0.1122,0.1137,0.1199,0.1202,0.1186,0.1195,0.1117,0.1101,0.0926,0.0829,0.0684,0.0531,0.0515,0.0403,0.0366,0.0409,0.0416,0.0394,0.0399,0.0352,0.0353,0.0354,0.0354,0,0.0881,0.0917,0.0974,0.0998,0.1053,0.1079,0.111,0.1119,0.1129,0.1088,0.1079,0.0978,0.0936,0.0799,0.0671,0.0653,0.0509,0.0458,0.0392,0.0392,0.04,0.0405,0.0355,0.0356,0.0356,0.0356,0.0356,0,0.0839,0.087,0.0925,0.0978,0.0988,0.1028,0.1082,0.1098,0.107,0.1047,0.0999,0.0946,0.0868,0.083,0.0677,0.0706,0.0614,0.0541,0.0534,0.0546,0.0509,0.0483,0.0448,0.0449,0.045,0.0451,0.0452,0,0.0835,0.087,0.0859,0.0921,0.0948,0.0964,0.0982,0.1005,0.0995,0.0982,0.0913,0.0883,0.084,0.0813,0.0753,0.066,0.0606,0.0658,0.0511,0.0507,0.0528,0.0499,0.0574,0.0468,0.0466,0.0465,0.0464,0,0.0823,0.0821,0.0825,0.0854,0.0884,0.0918,0.093,0.0947,0.0957,0.0929,0.0917,0.0854,0.0822,0.0796,0.0747,0.0693,0.0627,0.0652,0.0649,0.0617,0.0498,0.0515,0.0507,0.058,0.0579,0.0578,0.0475,0,0.081,0.082,0.0815,0.0839,0.0863,0.0881,0.0896,0.0906,0.09,0.0898,0.0861,0.0813,0.0776,0.0745,0.072,0.0673,0.0654,0.063,0.0622,0.061,0.0566,0.0557,0.0654,0.0654,0.0654,0.0654,0,0,0.0809,0.0807,0.08,0.0809,0.0827,0.0837,0.0861,0.0865,0.0872,0.0864,0.0844,0.0785,0.0749,0.0711,0.0702,0.0681,0.0644,0.0681,0.0619,0.0616,0.0612,0.057,0.0562,0.0653,0.0653,0.0653,0.0653,0,0.0794,0.0796,0.0795,0.081,0.0821,0.0836,0.0837,0.0848,0.0844,0.0847,0.0815,0.0779,0.0742,0.0712,0.069,0.068,0.0638,0.0658,0.0679,0.0619,0.0616,0.0613,0.057,0.0563,0.0652,0.0653,0.0653,0,0.0792,0.0792,0.0797,0.0808,0.0812,0.083,0.0815,0.0826,0.0844,0.0809,0.0805,0.0771,0.0733,0.0707,0.0691,0.0686,0.0631,0.0655,0.0656,0.0677,0.0616,0.0612,0.0609,0.065,0.065,0.065,0,0,0.0788,0.079,0.08,0.0808,0.0804,0.0817,0.082,0.083,0.0822,0.0818,0.0796,0.0766,0.0737,0.0716,0.0696,0.0675,0.065,0.0656,0.0657,0.0657,0.0678,0.0617,0.0614,0.065,0.065,0.065,0,0,0.0785,0.0787,0.0798,0.0799,0.0815,0.0823,0.0818,0.0825,0.0817,0.081,0.078,0.077,0.0741,0.0723,0.0733,0.0684,0.0681,0.0679,0.0697,0.0697,0.0697,0.0728,0.0709,0,0,0,0,0,0.0791,0.0788,0.0799,0.08,0.0816,0.0828,0.083,0.0825,0.0815,0.0821,0.0797,0.0777,0.0719,0.0728,0.0722,0.0705,0.0656,0.0655,0.0654,0.0673,0.0673,0.0673,0,0,0,0,0,0,0.0792,0.0794,0.0799,0.0807,0.081,0.0828,0.0814,0.0814,0.0814,0.0811,0.0785,0.0777,0.0758,0.0729,0.0724,0.0708,0.0711,0.0656,0.0655,0.0654,0.0673,0.0673,0.0673,0,0,0,0,0,0.0792,0.0794,0.0817,0.0807,0.081,0.0806,0.0814,0.0813,0.0815,0.0786,0.078,0.0807,0.076,0.0752,0.0726,0.0711,0.0714,0.0713,0.0655,0.0655,0.0654,0.0673,0,0,0,0,0,0,0.0792,0.0803,0.0818,0.0819,0.0793,0.0805,0.0806,0.0812,0.0789,0.0784,0.0807,0.0805,0.0761,0.0755,0.075,0.0712,0.0717,0.0715,0.0714,0.0655,0.0654,0.0654,0,0,0,0,0,0,0.0802,0.0804,0.0818,0.0801,0.08,0.0804,0.0804,0.079,0.0787,0.0811,0.0809,0.0806,0.0744,0.0757,0.0753,0.0733,0.0719,0.0717,0.0716,0.0715,0.0654,0.0654,0,0,0,0,0,0,0.0803,0.0805,0.0801,0.08,0.0799,0.0811,0.0788,0.0792,0.0813,0.0811,0.0809,0.0808,0.0745,0.0742,0.0755,0.0738,0.0734,0.0719,0.0718,0.0717,0.0716,0,0,0,0,0,0,0,0.0804,0.0789,0.0808,0.08,0.0799,0.0825,0.0825,0.0826,0.0812,0.0811,0.081,0.0808,0.0729,0.0727,0.0725,0.0742,0,0,0.0719,0.0718,0,0,0,0,0,0,0,0,0.0788,0.0789,0.0808,0.0808,0.0807,0.0825,0.0825,0.0826,0.0812,0.0811,0.081,0.0809,0.0728,0.0727,0.0725,0,0,0,0,0,0,0,0,0,0,0,0,0,0,0,0.0808,0.0808,0,0.0825,0.0825,0.0826,0.0812,0.0811,0.081,0.0809,0.0728,0.0727,0.0725,0,0,0,0,0,0,0,0,0,0,0,0,0,0,0,0,0,0,0,0,0,0,0,0,0,0,0,0,0,0,0,0,0,0,0,0,0,0,0,0,0,0,0,0,0,0,0,0,0,0,0,0,0,0,0,0,0,0,0,0,0,0,0,0,0,0,0,0,0]}]]]